Regional Weather Roundup
Issued by NWS Austin/San Antonio, TX

Home | Current Version | Previous Version | Text Only | Print | Product List | Glossary On
Versions: 1 2 3 4 5 6 7 8 9 10 11 12 13 14 15 16 17 18 19 20 21 22 23 24 25 26 27 28 29 30 31 32 33 34 35 36 37 38 39 40 41 42 43 44 45 46 47 48 49 50
286
ASUS44 KEWX 281301
RWREWX
SOUTH TEXAS REGIONAL WEATHER ROUNDUP
NATIONAL WEATHER SERVICE AUSTIN/SAN ANTONIO TX
800 AM CDT FRI APR 28 2017

NOTE: "FAIR" INDICATED FEW OR NO CLOUDS BELOW 12,000 FEET WITH NO
SIGNIFICANT WEATHER AND/OR OBSTRUCTIONS TO VISIBILITY.

* - THESE STATIONS ARE NOT NWS OR FAA STATIONS...AND ARE NOT SUBJECT
    TO NWS AND FAA QUALITY CONTROL.

TXZ171-172-183>190-281400-
TEXAS HILL COUNTRY AND EDWARDS PLATEAU

CITY           SKY/WX    TMP DP  RH WIND       PRES   REMARKS
JUNCTION       CLOUDY    70  64  81 SW7       29.64R
*LLANO         SUNNY     64  63  94 CALM      29.66R
BURNET         PTSUNNY   69  63  81 S6        29.67R
*HORSESHOE BAY CLOUDY    70  65  84 CALM      29.65R
*KERRVILLE     PTSUNNY   69  66  92 S8        29.65S FOG
*FREDERICKSBRG CLOUDY    68  62  82 SW12      29.65R
*ROCKSPRINGS   CLOUDY    66  64  94 S8        29.68R FOG
*BOERNE STAGE  CLOUDY    68  64  88 S5        29.67R
*CASTROVILLE   CLOUDY    71  67  88 CALM      29.64R
HONDO          CLOUDY    71  68  90 NE3       29.64R FOG
*UVALDE        CLOUDY    69  67  90 E8        29.61F FOG
DEL RIO        CLOUDY    72  68  87 E8        29.59R
LAUGHLIN AFB   CLOUDY    72  69  90 E10       29.60R
CARRIZO SPRGS  CLOUDY    72  70  94 E3        29.59R
*EAGLE PASS    NOT AVBL
$$

TXZ173-191>194-202-209-217>225-228-281400-
CENTRAL AND SOUTH CENTRAL TEXAS

CITY           SKY/WX    TMP DP  RH WIND       PRES   REMARKS
GEORGETOWN     CLOUDY    73  64  73 S10       29.65R
AUSTIN/BERGSTM CLOUDY    74  69  85 S9        29.63R FOG
AUSTIN/MABRY   CLOUDY    73  67  81 VRB3      29.65R
*AUSTIN/EXEC   CLOUDY    72  68  88 S7        29.64R
*LAGO VISTA    CLOUDY    72  66  83 SW9       29.66R
SAN MARCOS     CLOUDY    72  68  88 S8        29.63R FOG
NEW BRAUNFELS  CLOUDY    72  68  87 SW7       29.62R FOG
RANDOLPH AFB   CLOUDY    71  71 100 SW3       29.63R FOG
PT SAN ANTONIO CLOUDY    73  68  87 S3        29.61R
SAN ANTONIO    CLOUDY    73  67  81 S10       29.64R
STINSON FIELD  CLOUDY    74  68  81 CALM      29.61R HAZE
*LA GRANGE     CLOUDY    74  72  92 S9G16     29.60R FOG
*GIDDINGS      CLOUDY    73  69  88 S9G16     29.63R FOG
*GONZALES      CLOUDY    73  73  98 S8        29.61R FOG
$$

TXZ163>164-176>182-195>201-210>213-226-227-235-281400-
SOUTHEAST TEXAS

CITY           SKY/WX    TMP DP  RH WIND       PRES   REMARKS
COLLEGE STN    CLOUDY    74  71  91 S15G22    29.62R
*BRYAN         CLOUDY    73  71  93 S12G17    29.64R
*CALDWELL      NOT AVBL
*CROCKETT      PTSUNNY   73  70  88 S9        29.67R FOG
*BRENHAM       PTSUNNY   74  73  93 S12       29.63R FOG
HUNTSVILLE     MOSUNNY   75  69  81 S12G18    29.63R HAZE
CONROE         PTSUNNY   76  70  82 S10       29.66R HAZE
HOUSTON BUSH   PTSUNNY   78  72  81 S15       29.67R HAZE
HOUSTON HOBBY  PTSUNNY   77  73  87 S10       29.67R
*HOUSTON SW AP PTSUNNY   74  72  92 SE7       29.67R FOG
PEARLAND       CLOUDY    78  73  84 S12       29.68R HAZE
HOUSTON HOOKS  PTSUNNY   77  71  82 S9G21     29.66R
ELLINGTON FLD  CLOUDY    77  75  94 SE13      29.68R
SUGAR LAND     CLOUDY    76  73  91 SE10      29.66R FOG
*HOUSTON EXEC  PTSUNNY   75  73  94 S14       29.66R FOG
*CLEVELAND MUN CLOUDY    76  73  90 S10       29.67R FOG
*WHARTON       SUNNY     73  71  93 SE8       29.64S FOG
*COLUMBUS      CLOUDY    73  71  92 SE7       29.65R FOG
*EAGLE LAKE    CLOUDY    75  74  97 S8        29.64R FOG
$$

TXZ214>216-236>238-281400-
THE UPPER TEXAS COAST

CITY           SKY/WX    TMP DP  RH WIND       PRES   REMARKS
*ORANGE        CLOUDY    77  74  91 S13G18    29.74R FOG
PORT ARTHUR    CLOUDY    78  73  84 S17G24    29.71R HAZE
GALVESTON      PTSUNNY   78  76  93 S14       29.69R FOG
ANGLETON       PTSUNNY   78  74  87 S14       29.67R FOG
*BAY CITY      PTSUNNY   75  74  98 SE9       29.65R FOG
PALACIOS       CLOUDY    75  73  93 SE12      29.64R FOG
$$

TXZ229>234-239>247-281400-
TEXAS COASTAL BEND AND RIO GRANDE PLAINS

CITY           SKY/WX    TMP DP  RH WIND       PRES   REMARKS
VICTORIA       CLOUDY    73  71  93 SE8       29.63R FOG
*BEEVILLE      PTSUNNY   74  74 100 SE7       29.60S
ROCKPORT       MOSUNNY   76  72  87 SE13      29.61R FOG
*PORT ARANSAS  MOSUNNY   76  73  92 SE12      29.62R FOG
*PORT LAVACA   CLOUDY    74  74 100 CALM      29.63R FOG
*INGLESIDE     LGT RAIN  77  73  88 SE9       29.61R VSB 3/4
CORPUS CHRISTI PTSUNNY   74  72  93 SE10      29.60R
CORPUS NAS     PTSUNNY   77  72  84 S10       29.61R
*ROBSTOWN      MOSUNNY   75  75 100 SE7       29.60R FOG
ALICE          SUNNY     72  70  93 SE3       29.58R FOG
KINGSVILLE NAS PTSUNNY   75  74  96 SE9       29.58R FOG
COTULLA        CLOUDY    72  68  87 E3        29.60R
*FAITH RANCH   CLOUDY    75  70  83 VRB5      29.60R
LAREDO         CLOUDY    74  70  87 E8        29.59R
$$

TXZ248>255-281400-
DEEP SOUTH TEXAS

CITY           SKY/WX    TMP DP  RH WIND       PRES   REMARKS
BROWNSVILLE    CLOUDY    79  75  87 S20G26    29.61R
PORT ISABEL    CLOUDY    78  75  90 S20G28    29.59S FOG
*SOUTH PADRE   NOT AVBL
HARLINGEN      SUNNY     75  75 100 SE18      29.56S FOG
*HEBBRONVILLE  PTSUNNY   71  68  90 S10       29.58S FOG
MCALLEN        MOSUNNY   76  72  87 SE16G26   29.56R FOG
*WESLACO       CLOUDY    75  73  92 S14G20    29.56R FOG
FALFURRIAS       N/A     73  71  95 SE7       29.57R
EDINBURG       PTSUNNY   76  72  88 SE7       29.57R FOG
*ZAPATA        CLOUDY    74  69  85 SE8       29.56R HAZE
$$

TXZ213>215-236>238-242>244-246-247-251-254-255-281400-
CMAN STATIONS

STATION/POSITION TIME  TEMP    WIND        PRES    WAVE
                       AIR SEA DIR/SP/G            HT/PER
                 (UTC) (F)     (DEG/KT/KT) (MB)    (FT/S)
SABINE PASS      1230   76 76  150/ 12/ 16 1007.5
SEA RIM ST PARK  1200   75     150/ 11/ 12 1006.1
NORTH JETTY/GLS  1230      75  150/ 17/ 18 1004.7
EAGLE POINT      1230   76 74  180/ 14/ 16 1004.6
MORGANS POINT    1230   76 75  150/  7/ 12 1004.6
MISSION/ARANSAS  1200   76                 1002.0
PORT O`CONNOR    1230   76     140/ 12/ 15 1003.0
PORT ARANSAS     1200   76 76  150/ 16/ 18 1001.8
MALAQUITE BEACH  1230   77 77  140/ 17/ 20 1002.6
BAFFIN BAY       1230   76 76  110/ 14/ 17 1001.5
PORT ISABEL      1230   78 80  160/ 20/ 25 1002.1
$$




USA.gov is the U.S. government's official web portal to all federal, state and local government web resources and services.